Weather Roundup
Issued by NWS Chicago, IL

Home | Current Version | Previous Version | Graphics & Text | Print | Product List | Glossary On
Versions: 1 2 3 4 5 6 7 8 9 10 11 12 13 14 15 16 17 18 19 20 21 22 23 24 25 26 27 28 29 30 31 32 33 34 35 36 37 38 39 40 41 42 43 44 45 46 47 48 49 50
535
NZUS59 KLOT 182212
HRRLOT

CHICAGO AREA WEATHER ROUNDUP
NATIONAL WEATHER SERVICE CHICAGO/ROMEOVILLE IL
400 PM CST WED JAN 18 2017

NOTE: "FAIR" INDICATES FEW OR NO CLOUDS BELOW 12,000 FEET WITH NO
SIGNIFICANT WEATHER AND/OR OBSTRUCTIONS TO VISIBILITY.

* THESE STATIONS ARE NOT UNDER NWS QUALITY CONTROL. THEY ALSO MAY NOT
  REPORT WEATHER SUCH AS PRECIPITATION OR FOG.

ILZ005-006-012>014-019>023-182300-
NORTHEAST ILLINOIS

CITY           SKY/WX    TMP DP  RH WIND       PRES   REMARKS
OHARE          CLOUDY    36  32  85 SW8       30.05S
MIDWAY         MOCLDY    36  31  82 SW7       30.06S
AURORA         CLOUDY    37  32  82 SW9       30.07R
LANSING*       CLOUDY    37  34  92 SW10      30.08S
JOLIET*        CLOUDY    38  34  86 SW6       30.09R
WAUKEGAN       CLOUDY    35  31  85 W7        30.04R WCI  29
DUPAGE AIRPORT CLOUDY    35  31  85 SW12      30.05S WCI  27
WHEELING       CLOUDY    35  30  82 SW7       30.07S WCI  29
KANKAKEE*      CLOUDY    38  34  84 SW13      30.10R
MORRIS*        CLOUDY    37  33  86 SW8       30.07S
LEWIS AIRPORT* CLOUDY    36  35  96 SW10      30.08R
NORTHERLY ISL    N/A     38  31  76 SW6         N/A
$$

WIZ051-052-058>065-066-070>072-182300-
SOUTHEAST WISCONSIN

CITY           SKY/WX    TMP DP  RH WIND       PRES   REMARKS
MILWAUKEE      CLOUDY    36  31  82 SW13      30.01F
KENOSHA*       CLOUDY    34  31  88 W13       30.04S FOG     WCI  25
RACINE*        CLOUDY    35  30  82 SW16      30.03F WCI  25
WAUKESHA       CLOUDY    32  30  93 SW9       30.01F WCI  24
WEST BEND      CLEAR     34  32  93 SW7       29.98R WCI  28
$$

INZ001>003-010>013-019-020-182300-
NORTHWEST INDIANA

CITY           SKY/WX    TMP DP  RH WIND       PRES   REMARKS
GARY*          MOCLDY    39  32  75 SW12      30.08S
MICHIGAN CITY* NOT AVBL
RENSSELAER*    NOT AVBL
VALPARAISO     CLOUDY    38  34  85 SW9       30.08S
$$

LMZ740>746-182300-
SOUTHERN LAKE MICHIGAN

STATION/POSITION TIME  SKY/WX   TEMP WIND        PRES    VSBY
                                AIR  DIR/SP/G
                 (UTC)          (F)  (DEG/KT/KT) (MB)    (MI)
HARRISON CRIB    2140            38  230/  5/  6   N/A
BURNHAM HARBOR   2200            38  230/  6/ 12   N/A
CALUMET HARBOR   2148            37  200/  7/ 10 1017.7R
BURNS HARBOR     2140            38  200/  9/ 12 1019.0S
MICHIGAN CITY    NOT AVBL
$$

ABBREVIATIONS USED IN REMARKS
   TC - TEMPERATURE IN CELSIUS
  WCI - WIND CHILL INDEX
   HX - HEAT INDEX
  VSB - VISIBILITY
$$




USA.gov is the U.S. government's official web portal to all federal, state and local government web resources and services.